This demonstration page uses our WeatherBlox Daily Observations layout. Learn more.

Left ArrowRight Arrow

30.21309, -93.2044

Hourly Observations for April 30, 2015

Temp ( °F °C ) Dew Point ( °F °C ) Humidity (%) Winds ( mph kmh ) Pressure ( in mb ) Visibility ( mi km ) Precip ( " mm )
12:15 am 00:15 Clear 59 14.9 52 11 78 78 WNW 3 6 29.97 1015 10 16 0.00 0.00
12:35 am 00:35 Clear 57 13.9 53 11.4 85 85 NW 5 7 29.94 1014 10 16 0.00 0.00
12:55 am 00:55 Clear 58 14.6 52 11.3 81 81 NW 5 7 29.94 1014 10 16 0.00 0.00
1:15 am 01:15 Clear 57 13.7 52 11 84 84 NW 5 7 29.94 1014 10 16 0.00 0.00
1:35 am 01:35 Clear 57 14.1 52 11.1 82 82 WNW 5 7 29.94 1014 10 16 0.00 0.00
1:55 am 01:55 Clear 57 13.9 51 10.7 81 81 WNW 5 7 29.94 1014 10 16 0.00 0.00
2:15 am 02:15 Clear 57 14.1 51 10.6 80 80 WNW 5 7 29.94 1014 10 16 0.00 0.00
2:35 am 02:35 Clear 57 14 51 10.6 80 80 NW 5 7 29.94 1014 10 16 0.00 0.00
2:55 am 02:55 Clear 56 13.5 51 10.5 82 82 WNW 5 7 29.91 1013 10 16 0.00 0.00
3:15 am 03:15 Clear 57 13.7 51 10.5 81 81 Calm 29.91 1013 10 16 0.00 0.00
3:35 am 03:35 Clear 56 13.6 51 10.5 82 82 Calm 29.94 1014 10 16 0.00 0.00
3:55 am 03:55 Clear 56 13.4 51 10.3 82 82 WNW 3 6 29.94 1014 10 16 0.00 0.00
4:15 am 04:15 Clear 56 13.5 50 10.2 81 81 WNW 3 6 29.94 1014 10 16 0.00 0.00
4:35 am 04:35 Clear 56 13.5 50 10.2 81 81 WNW 5 7 29.94 1014 10 16 0.00 0.00
4:55 am 04:55 Clear 56 13.1 50 10.1 82 82 Calm 29.94 1014 10 16 0.00 0.00
5:15 am 05:15 Clear 55 13 50 10.1 83 83 Calm 29.94 1014 10 16 0.00 0.00
6:00 am 06:00 Mostly Clear 54 12 50 10 88 88 WNW 7 11 29.94 1014 10 16 0.00 0.00
6:50 am 06:50 Mostly Sunny 54 12 50 10 88 88 WNW 5 7 29.97 1015 10 16 0.00 0.00
7:50 am 07:50 Mostly Sunny 59 15 54 12 82 82 WNW 5 7 29.97 1015 10 16 0.00 0.00
8:50 am 08:50 Mostly Sunny 64 18 54 12 68 68 NNW 6 9 30.00 1016 10 16 0.00 0.00
9:50 am 09:50 Mostly Sunny 72 22 52 11 50 50 NW 7 11 30.00 1016 10 16 0.00 0.00
10:50 am 10:50 Mostly Sunny 73 23 54 12 50 50 NW 7 11 30.00 1016 10 16 0.00 0.00
11:55 am 11:55 Mostly Sunny 75 24 48 9 39 39 NNW 6 9 30.00 1016 10 16 0.00 0.00
12:55 pm 12:55 Partly Cloudy 77 25 46 8 34 34 W 7 11 30.00 1016 10 16 0.00 0.00
1:50 pm 13:50 Partly Cloudy 79 26 46 8 32 32 WSW 6 9 29.97 1015 10 16 0.00 0.00
2:50 pm 14:50 Mostly Cloudy 81 27 48 9 32 32 WSW 12 19 29.97 1015 10 16 0.00 0.00
3:50 pm 15:50 Mostly Cloudy 81 27 48 9 32 32 W 6 9 29.94 1014 10 16 0.00 0.00
4:50 pm 16:50 Partly Cloudy 81 27 48 9 32 32 W 8 13 29.94 1014 10 16 0.00 0.00
5:50 pm 17:50 Partly Cloudy 81 27 48 9 32 32 WNW 8 13 29.91 1013 10 16 0.00 0.00
6:50 pm 18:50 Partly Cloudy 79 26 48 9 34 34 W 7 11 29.91 1013 10 16 0.00 0.00
7:50 pm 19:50 Mostly Clear 73 23 52 11 47 47 WSW 10 17 29.94 1014 10 16 0.00 0.00
8:50 pm 20:50 Mostly Clear 70 21 52 11 53 53 SSW 6 9 29.97 1015 10 16 0.00 0.00
9:50 pm 21:50 Mostly Clear 70 21 54 12 57 57 SW 8 13 29.97 1015 10 16 0.00 0.00
10:15 pm 22:15 Clear 69 20.4 53 11.5 57 57 WSW 8 13 29.97 1015 10 16 0.00 0.00
10:35 pm 22:35 Clear 69 20.3 53 11.8 58 58 WSW 6 9 30.00 1016 10 16 0.00 0.00
10:55 pm 22:55 Clear 68 19.9 53 11.9 60 60 WSW 7 11 30.00 1016 10 16 0.00 0.00
11:15 pm 23:15 Clear 68 20.1 54 12.2 61 61 WSW 8 13 30.00 1016 10 16 0.00 0.00
11:35 pm 23:35 Clear 68 20.1 54 12.2 61 61 WSW 7 11 30.00 1016 10 16 0.00 0.00
11:55 pm 23:55 Clear 68 20.2 54 12.3 61 61 WSW 7 11 30.00 1016 10 16 0.00 0.00

Powered by AerisWeather